Hourly Weather Al Khafji

Today, 6 March, Saturday

Time Temperature Precipitation Wind Pressure Humidity
00:00 +19°C° 0 mm 6 mps 765 mmHg 44%
01:00 +17°C° 0 mm 7 mps 765 mmHg 44%
02:00 +17°C° 0 mm 7 mps 765 mmHg 44%
03:00 +16°C° 0 mm 8 mps 764 mmHg 45%
04:00 +16°C° 0 mm 8 mps 765 mmHg 44%
05:00 +15°C° 0 mm 7 mps 765 mmHg 42%
06:00 +15°C° 0 mm 7 mps 765 mmHg 41%
07:00 +16°C° 0 mm 8 mps 766 mmHg 35%
08:00 +18°C° 0 mm 8 mps 766 mmHg 30%
09:00 +20°C° 0 mm 8 mps 766 mmHg 24%
10:00 +21°C° 0 mm 8 mps 766 mmHg 22%
11:00 +23°C° 0 mm 8 mps 766 mmHg 19%
12:00 +24°C° 0 mm 7 mps 765 mmHg 17%
13:00 +24°C° 0 mm 7 mps 765 mmHg 16%
14:00 +26°C° 0 mm 7 mps 764 mmHg 15%
15:00 +26°C° 0 mm 6 mps 763 mmHg 14%
16:00 +24°C° 0 mm 6 mps 763 mmHg 16%
17:00 +23°C° 0 mm 5 mps 763 mmHg 17%
18:00 +22°C° 0 mm 4 mps 763 mmHg 18%
19:00 +21°C° 0 mm 5 mps 763 mmHg 19%
20:00 +21°C° 0 mm 5 mps 764 mmHg 21%
21:00 +20°C° 0 mm 5 mps 764 mmHg 22%
22:00 +19°C° 0 mm 5 mps 764 mmHg 24%
23:00 +19°C° 0 mm 6 mps 764 mmHg 25%

Tomorrow, 7 March, Sunday

Time Temperature Precipitation Wind Pressure Humidity
00:00 +17°C° 0 mm 6 mps 764 mmHg 27%
01:00 +17°C° 0 mm 6 mps 763 mmHg 28%
02:00 +16°C° 0 mm 6 mps 763 mmHg 29%
03:00 +16°C° 0 mm 6 mps 762 mmHg 30%
04:00 +15°C° 0 mm 6 mps 763 mmHg 30%
05:00 +15°C° 0 mm 6 mps 763 mmHg 31%
06:00 +15°C° 0 mm 6 mps 763 mmHg 31%
07:00 +16°C° 0 mm 6 mps 764 mmHg 29%
08:00 +19°C° 0 mm 6 mps 764 mmHg 26%
09:00 +20°C° 0 mm 5 mps 764 mmHg 24%
10:00 +22°C° 0 mm 5 mps 763 mmHg 20%
11:00 +23°C° 0 mm 5 mps 763 mmHg 17%
12:00 +25°C° 0 mm 5 mps 763 mmHg 13%
13:00 +26°C° 0 mm 5 mps 762 mmHg 13%
14:00 +27°C° 0 mm 5 mps 761 mmHg 12%
15:00 +27°C° 0 mm 5 mps 760 mmHg 11%
16:00 +26°C° 0 mm 4 mps 760 mmHg 13%
17:00 +25°C° 0 mm 3 mps 760 mmHg 15%
18:00 +24°C° 0 mm 2 mps 760 mmHg 17%
19:00 +23°C° 0 mm 2 mps 760 mmHg 18%
20:00 +21°C° 0 mm 2 mps 760 mmHg 18%
21:00 +20°C° 0 mm 2 mps 761 mmHg 19%
22:00 +20°C° 0 mm 2 mps 761 mmHg 20%
23:00 +20°C° 0 mm 3 mps 761 mmHg 21%

Day after tomorrow, 8 March, Monday

Time Temperature Precipitation Wind Pressure Humidity
00:00 +19°C° 0 mm 3 mps 760 mmHg 21%
01:00 +19°C° 0 mm 3 mps 760 mmHg 22%
02:00 +19°C° 0 mm 3 mps 759 mmHg 22%
03:00 +18°C° 0 mm 2 mps 759 mmHg 23%
04:00 +18°C° 0 mm 2 mps 759 mmHg 23%
05:00 +17°C° 0 mm 2 mps 760 mmHg 24%
06:00 +17°C° 0 mm 2 mps 760 mmHg 25%
07:00 +19°C° 0 mm 2 mps 760 mmHg 23%
08:00 +21°C° 0 mm 1 mps 761 mmHg 21%
09:00 +23°C° 0 mm 1 mps 761 mmHg 19%
10:00 +25°C° 0 mm 1 mps 760 mmHg 17%
11:00 +26°C° 0 mm 2 mps 760 mmHg 16%
12:00 +27°C° 0 mm 2 mps 759 mmHg 14%
13:00 +27°C° 0 mm 3 mps 759 mmHg 15%
14:00 +28°C° 0 mm 3 mps 758 mmHg 15%
15:00 +28°C° 0 mm 3 mps 757 mmHg 15%
16:00 +26°C° 0 mm 4 mps 757 mmHg 20%
17:00 +25°C° 0 mm 5 mps 757 mmHg 24%
18:00 +23°C° 0 mm 5 mps 757 mmHg 28%
19:00 +22°C° 0 mm 5 mps 758 mmHg 32%
20:00 +21°C° 0 mm 4 mps 758 mmHg 36%
21:00 +21°C° 0 mm 4 mps 758 mmHg 40%
22:00 +20°C° 0 mm 3 mps 758 mmHg 40%
23:00 +20°C° 0 mm 3 mps 758 mmHg 41%

9 March, Tuesday

Time Temperature Precipitation Wind Pressure Humidity
00:00 +20°C° 0 mm 3 mps 758 mmHg 41%
01:00 +19°C° 0 mm 2 mps 757 mmHg 43%
02:00 +18°C° 0 mm 2 mps 757 mmHg 44%
03:00 +19°C° 0 mm 1 mps 757 mmHg 45%
04:00 +18°C° 0 mm 1 mps 757 mmHg 46%
05:00 +18°C° 0 mm 1 mps 758 mmHg 46%
06:00 +18°C° 0 mm 1 mps 758 mmHg 46%
07:00 +20°C° 0 mm 1 mps 759 mmHg 39%
08:00 +21°C° 0 mm 2 mps 759 mmHg 32%
09:00 +25°C° 0 mm 3 mps 760 mmHg 25%
10:00 +26°C° 0 mm 3 mps 760 mmHg 21%
11:00 +28°C° 0 mm 3 mps 760 mmHg 17%
12:00 +29°C° 0 mm 4 mps 760 mmHg 14%
13:00 +30°C° 0 mm 4 mps 759 mmHg 14%
14:00 +30°C° 0 mm 4 mps 759 mmHg 14%
15:00 +32°C° 0 mm 5 mps 759 mmHg 14%
16:00 +29°C° 0 mm 4 mps 759 mmHg 16%
17:00 +27°C° 0 mm 3 mps 759 mmHg 19%
18:00 +26°C° 0 mm 3 mps 760 mmHg 21%
19:00 +25°C° 0 mm 3 mps 760 mmHg 21%
20:00 +25°C° 0 mm 3 mps 761 mmHg 21%
21:00 +24°C° 0 mm 3 mps 761 mmHg 22%
22:00 +22°C° 0 mm 4 mps 761 mmHg 22%
23:00 +22°C° 0 mm 5 mps 761 mmHg 23%

10 March, Wednesday

Time Temperature Precipitation Wind Pressure Humidity
00:00 +21°C° 0 mm 5 mps 761 mmHg 23%
01:00 +21°C° 0 mm 5 mps 761 mmHg 25%
02:00 +20°C° 0 mm 5 mps 761 mmHg 28%
03:00 +20°C° 0 mm 5 mps 761 mmHg 30%
04:00 +19°C° 0 mm 4 mps 761 mmHg 34%
05:00 +19°C° 0 mm 4 mps 761 mmHg 37%
06:00 +18°C° 0 mm 3 mps 762 mmHg 41%
07:00 +20°C° 0 mm 3 mps 762 mmHg 37%
08:00 +21°C° 0 mm 3 mps 763 mmHg 33%
09:00 +24°C° 0 mm 3 mps 763 mmHg 29%
10:00 +25°C° 0 mm 3 mps 763 mmHg 25%
11:00 +27°C° 0 mm 3 mps 763 mmHg 22%
12:00 +28°C° 0 mm 3 mps 762 mmHg 18%
13:00 +28°C° 0 mm 3 mps 762 mmHg 17%
14:00 +29°C° 0 mm 3 mps 761 mmHg 16%
15:00 +29°C° 0 mm 3 mps 761 mmHg 16%
16:00 +27°C° 0 mm 3 mps 761 mmHg 20%
17:00 +26°C° 0 mm 3 mps 761 mmHg 24%
18:00 +24°C° 0 mm 2 mps 761 mmHg 28%
19:00 +24°C° 0 mm 2 mps 761 mmHg 29%
20:00 +23°C° 0 mm 1 mps 761 mmHg 30%
21:00 +21°C° 0 mm 0 mps 762 mmHg 31%
22:00 +22°C° 0 mm 1 mps 762 mmHg 30%
23:00 +22°C° 0 mm 1 mps 761 mmHg 30%

11 March, Thursday

Time Temperature Precipitation Wind Pressure Humidity
00:00 +21°C° 0 mm 2 mps 761 mmHg 29%
01:00 +21°C° 0 mm 2 mps 761 mmHg 30%
02:00 +21°C° 0 mm 2 mps 760 mmHg 30%
03:00 +20°C° 0 mm 2 mps 759 mmHg 30%
04:00 +20°C° 0 mm 2 mps 759 mmHg 30%
05:00 +20°C° 0 mm 2 mps 759 mmHg 29%
06:00 +20°C° 0 mm 2 mps 759 mmHg 29%
07:00 +22°C° 0 mm 3 mps 759 mmHg 26%
08:00 +25°C° 0 mm 4 mps 759 mmHg 23%
09:00 +26°C° 0 mm 5 mps 760 mmHg 20%
10:00 +28°C° 0 mm 5 mps 759 mmHg 18%
11:00 +30°C° 0 mm 6 mps 758 mmHg 16%
12:00 +33°C° 0 mm 7 mps 757 mmHg 14%
13:00 +34°C° 0 mm 7 mps 757 mmHg 13%
14:00 +34°C° 0 mm 7 mps 756 mmHg 12%
15:00 +35°C° 0 mm 7 mps 755 mmHg 11%
16:00 +35°C° 0 mm 7 mps 755 mmHg 12%
17:00 +34°C° 0 mm 7 mps 754 mmHg 13%
18:00 +33°C° 0 mm 6 mps 754 mmHg 14%
19:00 +32°C° 0 mm 7 mps 754 mmHg 15%
20:00 +30°C° 0 mm 7 mps 754 mmHg 15%
21:00 +29°C° 0 mm 7 mps 754 mmHg 16%
22:00 +29°C° 0 mm 7 mps 753 mmHg 17%
23:00 +29°C° 0 mm 7 mps 753 mmHg 17%
Show more